DateTimeUTC,F1_A11,F1_S11,BsB_S11,BsG_S11,BsR_S11,BbsB_S11,BbsG_S11,BbsR_S11,BaB_A11,BaG_A11,BaR_A11,Tu_S11,T_S11,Uu_S11,U_S11,P_S11,T1_A11
2021-09-18T05:00:00Z,00000200,21000000,,,,,,,-000.36,-000.29,-000.10,18.1,25.3,,00.0,0655.8,31.1
2021-09-18T05:01:00Z,00000200,21000000,,,,,,,-000.30,-000.39,-000.36,18.1,25.3,,00.0,0655.8,31.1
2021-09-18T05:02:00Z,00000200,21000000,,,,,,,-000.20,0000.07,0000.07,18.1,25.4,,00.0,0655.8,31.1
2021-09-18T05:03:00Z,00000200,61000000,,,,,,,-000.22,-000.54,-000.54,18.1,25.4,,00.0,0655.8,31.1
2021-09-18T05:04:00Z,00000200,41000000,0000.73,-000.01,-000.04,0000.19,0000.14,-000.67,-000.03,-000.15,-000.01,18.5,25.3,,00.0,0656.7,31.0
2021-09-18T05:05:00Z,00000200,01000000,0000.07,0000.11,0000.05,0000.58,0000.06,0000.00,-000.43,0000.06,0000.11,18.4,25.2,,00.0,0656.8,31.0
2021-09-18T05:06:00Z,00000200,01000000,-000.40,-000.04,-000.02,0000.51,-000.04,-000.19,0000.08,-000.25,-000.43,18.3,25.1,,00.0,0656.8,31.0
2021-09-18T05:07:00Z,00000200,01000000,0000.07,-000.11,-000.04,0000.41,0000.16,-000.06,0000.02,0000.18,0000.48,18.3,25.1,,00.0,0656.8,31.0
2021-09-18T05:08:00Z,00000200,01000000,-000.01,0000.09,0000.16,0000.67,0000.03,-000.22,0000.13,0000.21,-000.27,18.2,25.0,,00.0,0656.8,30.9
2021-09-18T05:09:00Z,00000200,01000000,-000.13,0000.14,0000.13,0000.44,0000.10,-000.13,0000.59,-000.04,0000.45,18.1,25.0,,00.0,0656.8,31.0
2021-09-18T05:10:00Z,00000200,01000000,0000.90,0000.21,0000.14,0000.29,-000.14,-000.05,0000.15,0000.48,0000.30,18.2,25.0,,00.0,0656.8,31.0
2021-09-18T05:11:00Z,00000200,01000000,-000.22,0000.21,0000.13,0000.47,0000.45,-000.30,0000.18,0000.37,0000.26,18.2,25.0,,00.0,0656.8,31.0
2021-09-18T05:12:00Z,00000200,01000000,-000.26,0000.28,0000.06,0000.03,0000.03,-000.09,0000.03,0000.04,0000.08,18.3,25.1,,00.0,0656.8,31.0
2021-09-18T05:13:00Z,00000200,01000000,-000.54,0000.25,0000.33,-000.10,0000.53,-000.15,-000.02,-000.16,-000.10,18.4,25.1,,00.0,0656.8,31.0
2021-09-18T05:14:00Z,00000200,01000000,-000.28,0000.02,-000.27,0000.23,0000.03,-000.33,0000.33,0000.49,0000.21,18.5,25.1,,00.0,0656.8,31.1
2021-09-18T05:15:00Z,00000200,01000000,-000.09,-000.23,0000.08,0000.36,0000.08,-000.20,-000.05,0000.25,0000.28,18.6,25.2,,00.0,0656.8,31.0
2021-09-18T05:16:00Z,00000200,01000000,-000.27,0000.04,-000.24,0000.47,0000.00,-000.18,0000.09,-000.37,-000.25,18.6,25.2,,00.0,0656.8,31.0
2021-09-18T05:17:00Z,00000200,01000000,-000.56,0000.04,0000.28,-000.24,0000.24,0000.11,0000.10,-000.32,0000.16,18.5,25.2,,00.0,0656.8,31.0
2021-09-18T05:18:00Z,00000200,01000000,-000.43,0000.16,-000.12,0000.23,0000.36,-000.44,-000.32,0000.42,-000.25,18.4,25.2,,00.0,0656.7,31.0
2021-09-18T05:19:00Z,00000200,01000000,-000.37,0000.06,-000.01,-000.01,0000.30,-000.45,0000.35,-000.08,-000.10,18.4,25.1,,00.0,0656.7,31.0
2021-09-18T05:20:00Z,00000200,01000000,-000.44,0000.30,-000.22,0000.58,0000.28,-000.29,0000.11,0000.07,0000.26,18.3,25.0,,00.0,0656.7,31.0
2021-09-18T05:21:00Z,00000200,01000000,-000.66,0000.29,-000.01,0000.89,0000.15,0000.01,0000.07,0000.06,-000.34,18.2,25.0,,00.0,0656.7,31.0
2021-09-18T05:22:00Z,00000200,01000000,-000.25,-000.08,0000.31,0000.54,0000.29,0000.06,0000.20,0000.22,0000.39,18.1,25.0,,00.0,0656.7,31.0
2021-09-18T05:23:00Z,00000200,01000000,-000.08,0000.24,0000.14,0000.62,-000.03,0000.08,-000.30,-000.03,-000.10,18.1,24.9,,00.0,0656.7,30.9
2021-09-18T05:24:00Z,00000200,01000000,-000.09,-000.40,0000.05,0000.01,0000.26,-000.28,0000.39,0000.16,0000.11,18.0,24.9,,00.0,0656.6,30.9
2021-09-18T05:25:00Z,00000200,01000000,-000.03,0000.33,0000.18,0000.82,0000.22,-000.20,0000.24,0000.06,0000.02,18.1,24.9,,00.0,0656.6,31.0
2021-09-18T05:26:00Z,00000200,01000000,0000.21,0000.29,0000.09,0000.97,0000.16,0000.08,-000.14,0000.33,0000.37,18.2,24.9,,00.0,0656.6,31.0
2021-09-18T05:27:00Z,00000200,01000000,-000.31,-000.17,0000.07,0000.05,0000.23,-000.19,0000.17,0000.57,0000.43,18.2,24.9,,00.0,0656.6,31.0
2021-09-18T05:28:00Z,00000200,01000000,-000.34,0000.16,0000.06,0000.65,0000.16,-000.23,0000.15,-000.13,0000.12,18.3,25.0,,00.0,0656.6,31.0
2021-09-18T05:29:00Z,00000200,01000000,0000.33,0000.11,0000.12,0000.14,0000.21,-000.15,0000.29,-000.04,-000.17,18.4,25.0,,00.0,0656.6,31.0
2021-09-18T05:30:00Z,00000200,01000000,0000.82,0000.67,0000.48,0000.50,0000.06,-000.25,0000.06,0000.41,-000.08,18.5,25.1,,00.0,0656.7,31.0
2021-09-18T05:31:00Z,00000200,01000000,0001.78,0001.46,0000.59,0000.07,0000.28,-000.26,0000.53,0000.53,0000.45,18.6,25.1,,00.0,0656.6,31.1
2021-09-18T05:32:00Z,00000200,01000000,0001.35,0001.00,0000.85,0000.71,0000.25,0000.24,0000.51,-000.08,0000.45,18.7,25.2,,00.0,0656.7,31.1
2021-09-18T05:33:00Z,00000200,01000000,0002.55,0001.11,0000.61,0000.32,0000.38,-000.11,0000.66,0000.49,0000.45,18.7,25.2,,00.0,0656.7,31.1
2021-09-18T05:34:00Z,00000200,01000000,0001.43,0001.49,0000.77,0000.73,0000.22,-000.01,0000.28,0000.44,-000.02,18.7,25.2,,00.0,0656.6,31.1
2021-09-18T05:35:00Z,00000200,01000000,0001.96,0001.43,0000.67,0000.99,0000.18,0000.14,0000.05,0000.23,-000.00,18.6,25.2,,00.0,0656.6,31.0
2021-09-18T05:36:00Z,00000200,01000000,0001.55,0000.67,0000.68,-000.12,0000.28,-000.03,0000.36,0000.06,0000.46,18.6,25.2,,00.0,0656.6,31.0
2021-09-18T05:37:00Z,00000200,01000000,0002.01,0001.09,0000.65,0000.41,0000.29,0000.10,-000.13,0000.10,-000.01,18.5,25.1,,00.0,0656.6,31.0
2021-09-18T05:38:00Z,00000200,01000000,0000.10,-000.17,-000.25,0000.45,0000.17,-000.33,-000.37,-000.34,-000.38,18.4,25.1,,00.0,0656.7,31.0
2021-09-18T05:39:00Z,00000200,01000000,-000.36,-000.11,0000.33,0000.30,0000.24,-000.29,-000.03,0000.04,-000.01,18.3,25.1,,00.0,0656.6,31.0
2021-09-18T05:40:00Z,00000200,01000000,0000.27,-000.08,-000.05,-000.47,-000.13,-000.41,0000.05,-000.13,-000.04,18.4,25.1,,00.0,0656.6,31.0
2021-09-18T05:41:00Z,00000200,01000000,-000.57,0000.09,0000.20,-000.07,0000.14,-000.04,-000.43,0000.02,-000.24,18.4,25.1,,00.0,0656.7,31.0
2021-09-18T05:42:00Z,00000200,01000000,-000.40,0000.12,0000.13,0000.40,0000.29,-000.15,-000.50,-000.64,-000.14,18.5,25.1,,00.0,0656.7,31.0
2021-09-18T05:43:00Z,00000200,01000000,-000.03,0000.09,0000.10,0000.46,0000.21,0000.08,-000.54,-000.70,-000.43,18.6,25.2,,00.0,0656.7,31.0
2021-09-18T05:44:00Z,00000200,01000000,0000.00,0000.09,-000.05,0000.14,0000.05,0000.04,-001.05,-000.84,-000.61,18.7,25.2,,00.0,0656.7,31.1
2021-09-18T05:45:00Z,00000200,01000000,0000.49,0000.00,0000.23,0000.21,-000.01,0000.14,-000.13,-000.28,0000.14,18.7,25.2,,00.0,0656.7,31.1
2021-09-18T05:46:00Z,00000200,01000000,-000.29,0000.01,-000.12,0000.65,0000.07,-000.36,-000.57,-000.95,-000.86,18.8,25.3,,00.0,0656.8,31.1
2021-09-18T05:47:00Z,00000200,01000000,-000.11,0000.15,0000.18,0000.36,-000.00,-000.46,-000.81,-000.27,-000.34,18.7,25.2,,00.0,0656.7,31.0
2021-09-18T05:48:00Z,00000200,01000000,-000.46,-000.22,0000.27,0001.28,-000.02,-000.17,-000.23,-000.19,-000.45,18.6,25.2,,00.0,0656.7,31.0
2021-09-18T05:49:00Z,00000200,01000000,0000.06,0000.21,0000.44,0000.50,0000.13,-000.10,-000.19,-000.10,0000.20,18.5,25.2,,00.0,0656.7,31.0
2021-09-18T05:50:00Z,00000200,01000000,-000.27,-000.13,0000.25,0000.85,0000.01,-000.24,0000.10,-000.18,-000.25,18.4,25.1,,00.0,0656.7,31.0
2021-09-18T05:51:00Z,00000200,01000000,0000.10,0000.10,-000.03,0000.07,0000.20,-000.14,0000.02,0000.07,-000.06,18.3,25.1,,00.0,0656.7,31.0
2021-09-18T05:52:00Z,00000200,01000000,0000.34,0000.24,0000.15,0000.62,0000.12,-000.34,-000.18,-000.21,0000.11,18.3,25.0,,00.0,0656.7,31.0
2021-09-18T05:53:00Z,00000200,01000000,0000.43,-000.27,0000.11,0000.24,0000.09,0000.05,0000.52,0000.45,0000.00,18.2,25.0,,00.0,0656.7,31.0
2021-09-18T05:54:00Z,00000200,01000000,-000.12,-000.09,0000.17,0000.29,0000.20,-000.10,0000.21,0000.26,0000.64,18.1,24.9,,00.0,0656.7,30.9
2021-09-18T05:55:00Z,00000200,01000000,-000.10,-000.18,-000.15,-000.09,0000.24,-000.39,0000.24,0000.43,0000.15,18.1,25.0,,00.0,0656.7,31.0
2021-09-18T05:56:00Z,00000200,01000000,0000.03,-000.14,-000.00,0000.20,-000.06,-000.08,0000.40,0000.36,0000.31,18.2,25.0,,00.0,0656.7,31.0
2021-09-18T05:57:00Z,00000200,41000000,,,,,,,0001.11,0000.79,0000.37,18.3,25.0,,00.0,0656.6,31.0
2021-09-18T05:58:00Z,00000200,61000000,,,,,,,-000.58,-000.10,-000.18,18.0,25.2,,00.0,0655.7,31.0
2021-09-18T05:59:00Z,00000200,21000000,,,,,,,-000.08,-000.08,0000.26,18.0,25.3,,00.0,0655.8,31.0
